Date String (YYYY-MM-DD hh:mm:ss) UTC,Instrument flags,Ambient pressure (hPa),Sample flow (lpm),Bypass flow (lpm),Sample temperature (°C),Ambient temperature (°C),ASC tube jacket temperature (°C),LED temperature (°C),Box temperature (°C),Sample RH (%),Span deviation,Mass concentration (μg/m³),Mass concentration (μg/m³),Mass concentration (μg/m³)
DateTimeUTC,F1_M11,P_M11,Q1_M11,Q2_M11,T1_M11,T2_M11,T3_M11,T4_M11,T5_M11,U1_M11,ZSPAN_M11,X0_M11,X2_M11,X1_M11
2022-02-05 05:00:00,,0830.0,5.01,0.00,21.7,21.0,00.0,30.9,23.3,08.3,0000.0,0009.04,0004.42,0003.90
2022-02-05 05:01:00,,0830.1,5.00,0.00,21.7,21.1,00.0,30.9,23.3,08.3,0000.0,0009.00,0004.43,0003.94
2022-02-05 05:02:00,,0830.1,5.00,0.00,21.8,21.7,00.0,30.9,23.5,08.3,0000.0,0008.94,0004.42,0003.96
2022-02-05 05:03:00,,0830.1,4.99,0.00,22.0,22.5,00.0,31.0,23.8,08.2,0000.0,0008.75,0004.34,0003.91
2022-02-05 05:04:00,,0830.0,5.01,0.00,22.1,23.1,00.0,31.0,24.1,08.1,0000.0,0008.56,0004.31,0003.89
2022-02-05 05:05:00,,0830.0,4.99,0.00,22.2,23.0,00.0,31.0,24.1,08.1,0000.0,0008.75,0004.35,0003.93
2022-02-05 05:06:00,,0830.0,5.01,0.00,22.2,22.8,00.0,31.0,24.1,08.1,0000.0,0008.88,0004.36,0003.93
2022-02-05 05:07:00,,0830.1,5.00,0.00,22.2,22.5,00.0,31.1,24.1,08.1,0000.0,0008.84,0004.36,0003.91
2022-02-05 05:08:00,,0830.0,5.00,0.00,22.2,22.3,00.0,31.1,24.0,08.1,0000.0,0008.50,0004.32,0003.88
2022-02-05 05:09:00,,0830.0,5.01,0.00,22.2,22.0,00.0,31.1,23.8,08.1,0000.0,0008.49,0004.31,0003.89
2022-02-05 05:10:00,,0830.0,5.00,0.00,22.1,21.8,00.0,31.1,23.8,08.2,0000.0,0008.36,0004.33,0003.90
2022-02-05 05:11:00,,0829.9,4.99,0.00,22.1,21.7,00.0,31.1,23.7,08.3,0000.0,0008.78,0004.34,0003.91
2022-02-05 05:12:00,,0829.9,4.99,0.00,22.1,21.6,00.0,31.1,23.7,08.3,0000.0,0008.90,0004.31,0003.90
2022-02-05 05:13:00,,0829.9,5.01,0.00,22.0,21.5,00.0,31.1,23.7,08.3,0000.0,0009.11,0004.28,0003.88
2022-02-05 05:14:00,,0829.9,4.98,0.00,22.0,21.4,00.0,31.1,23.7,08.3,0000.0,0009.31,0004.28,0003.87
2022-02-05 05:15:00,,0830.0,5.02,0.00,22.0,21.3,00.0,31.1,23.7,08.3,0000.0,0009.35,0004.31,0003.87
2022-02-05 05:16:00,,0830.0,5.00,0.00,21.9,21.2,00.0,31.0,23.6,08.3,0000.0,0009.12,0004.30,0003.89
2022-02-05 05:17:00,,0829.9,4.99,0.00,21.9,21.2,00.0,31.0,23.5,08.3,0000.0,0009.08,0004.32,0003.90
2022-02-05 05:18:00,,0829.8,5.00,0.00,21.9,21.2,00.0,31.0,23.5,08.4,0000.0,0008.83,0004.30,0003.89
2022-02-05 05:19:00,,0829.8,5.01,0.00,21.9,21.2,00.0,31.0,23.5,08.4,0000.0,0008.81,0004.32,0003.89
2022-02-05 05:20:00,,0829.8,4.99,0.00,21.9,21.1,00.0,31.0,23.5,08.4,0000.0,0008.67,0004.26,0003.85
2022-02-05 05:21:00,,0829.8,5.00,0.00,21.9,21.1,00.0,31.0,23.5,08.4,0000.0,0008.68,0004.26,0003.83
2022-02-05 05:22:00,,0829.8,5.00,0.00,21.9,21.2,00.0,31.0,23.5,08.5,0000.0,0008.21,0004.22,0003.82
2022-02-05 05:23:00,,0829.8,5.00,0.00,21.9,21.7,00.0,31.0,23.7,08.5,0000.0,0008.49,0004.21,0003.78
2022-02-05 05:24:00,,0829.8,5.01,0.00,22.0,22.4,00.0,31.0,23.9,08.4,0000.0,0008.52,0004.25,0003.79
2022-02-05 05:25:00,,0829.8,4.99,0.00,22.2,22.9,00.0,31.1,24.1,08.2,0000.0,0008.68,0004.31,0003.83
2022-02-05 05:26:00,,0829.8,5.01,0.00,22.2,22.5,00.0,31.1,24.0,08.2,0000.0,0008.82,0004.30,0003.86
2022-02-05 05:27:00,,0829.8,5.00,0.00,22.2,22.3,00.0,31.1,23.9,08.2,0000.0,0008.91,0004.34,0003.88
2022-02-05 05:28:00,,0829.9,5.00,0.00,22.1,22.0,00.0,31.1,23.8,08.3,0000.0,0008.93,0004.36,0003.89
2022-02-05 05:29:00,,0829.9,4.98,0.00,22.1,21.6,00.0,31.1,23.7,08.3,0000.0,0009.05,0004.40,0003.94
2022-02-05 05:30:00,,0829.9,5.00,0.00,22.0,21.4,00.0,31.0,23.5,08.4,0000.0,0009.64,0004.40,0003.96
2022-02-05 05:31:00,,0829.8,5.00,0.00,21.9,21.2,00.0,31.0,23.5,08.4,0000.0,0009.85,0004.45,0003.98
2022-02-05 05:32:00,,0829.8,4.99,0.00,21.9,21.2,00.0,31.0,23.4,08.4,0000.0,0009.72,0004.45,0004.01
2022-02-05 05:33:00,,0829.8,5.01,0.00,21.8,21.0,00.0,31.0,23.3,08.4,0000.0,0009.69,0004.45,0004.04
2022-02-05 05:34:00,,0829.9,4.99,0.00,21.7,20.9,00.0,30.9,23.2,08.4,0000.0,0009.40,0004.51,0004.12
2022-02-05 05:35:00,,0829.8,5.02,0.00,21.7,20.8,00.0,30.9,23.2,08.4,0000.0,0009.10,0004.53,0004.17
2022-02-05 05:36:00,,0829.8,4.99,0.00,21.6,20.7,00.0,30.9,23.1,08.5,0000.0,0008.85,0004.50,0004.16
2022-02-05 05:37:00,,0829.8,4.99,0.00,21.7,21.3,00.0,30.9,23.3,08.5,0000.0,0008.70,0004.52,0004.16
2022-02-05 05:38:00,,0829.7,5.01,0.00,21.8,22.1,00.0,30.9,23.6,08.5,0000.0,0008.72,0004.52,0004.15
2022-02-05 05:39:00,,0829.7,4.99,0.00,22.0,22.6,00.0,30.9,23.8,08.4,0000.0,0009.03,0004.56,0004.19
2022-02-05 05:40:00,,0829.7,5.00,0.00,22.0,22.5,00.0,31.0,23.9,08.3,0000.0,0009.43,0004.66,0004.25
2022-02-05 05:41:00,,0829.7,5.00,0.00,22.0,22.2,00.0,31.0,23.8,08.4,0000.0,0009.37,0004.75,0004.32
2022-02-05 05:42:00,,0829.7,5.00,0.00,22.0,21.8,00.0,31.0,23.6,08.4,0000.0,0009.18,0004.76,0004.35
2022-02-05 05:43:00,,0829.7,5.01,0.00,21.9,21.6,00.0,30.9,23.5,08.5,0000.0,0010.05,0004.80,0004.36
2022-02-05 05:44:00,,0829.7,5.00,0.00,21.8,21.3,00.0,30.9,23.3,08.5,0000.0,0010.29,0004.88,0004.42
2022-02-05 05:45:00,,0829.6,5.00,0.00,21.8,21.2,00.0,30.9,23.3,08.4,0000.0,0010.52,0004.92,0004.44
2022-02-05 05:46:00,,0829.7,5.01,0.00,21.7,21.1,00.0,30.9,23.3,08.5,0000.0,0010.99,0004.92,0004.43
2022-02-05 05:47:00,,0829.7,5.00,0.00,21.7,21.0,00.0,30.9,23.3,08.6,0000.0,0011.51,0004.90,0004.39
2022-02-05 05:48:00,,0829.6,5.00,0.00,21.6,20.9,00.0,30.8,23.2,08.5,0000.0,0011.74,0004.89,0004.37
2022-02-05 05:49:00,,0829.6,5.01,0.00,21.6,20.8,00.0,30.8,23.1,08.5,0000.0,0012.06,0004.88,0004.37
2022-02-05 05:50:00,,0829.6,4.99,0.00,21.5,20.9,00.0,30.8,23.1,08.5,0000.0,0011.62,0004.80,0004.33
2022-02-05 05:51:00,,0829.6,5.01,0.00,21.6,21.6,00.0,30.8,23.3,08.6,0000.0,0011.20,0004.69,0004.23
2022-02-05 05:52:00,,0829.6,5.00,0.00,21.8,22.4,00.0,30.8,23.7,08.8,0000.0,0010.72,0004.54,0004.11
2022-02-05 05:53:00,,0829.5,4.99,0.00,22.0,22.8,00.0,30.9,23.9,08.7,0000.0,0010.76,0004.45,0004.02
2022-02-05 05:54:00,,0829.6,5.01,0.00,22.0,22.6,00.0,30.9,23.9,08.7,0000.0,0009.89,0004.36,0003.95
2022-02-05 05:55:00,,0829.6,5.00,0.00,22.0,22.4,00.0,30.9,23.9,08.4,0000.0,0009.83,0004.31,0003.87
2022-02-05 05:56:00,,0829.5,5.00,0.00,22.0,22.1,00.0,30.9,23.9,08.5,0000.0,0009.82,0004.26,0003.81
2022-02-05 05:57:00,,0829.5,5.00,0.00,22.0,22.0,00.0,30.9,23.8,08.6,0000.0,0009.82,0004.24,0003.77
2022-02-05 05:58:00,,0829.6,5.00,0.00,22.0,21.8,00.0,30.9,23.8,08.5,0000.0,0009.39,0004.22,0003.76
2022-02-05 05:59:00,,0829.6,5.00,0.00,22.0,21.7,00.0,30.9,23.7,08.4,0000.0,0009.30,0004.19,0003.75
